This demonstration page uses our WeatherBlox Daily Observations layout. Learn more.

Left ArrowRight Arrow

Hourly Observations for September 1, 2020

Temp ( °F °C ) Dew Point ( °F °C ) Humidity (%) Winds ( mph kmh ) Pressure ( in mb ) Visibility ( mi km ) Precip ( " mm )
12:15 am 00:15 Clear 59 14.9 48 8.7 67 67 E 8 13 29.91 1013 10 16 N/A
12:35 am 00:35 Clear 59 14.8 48 8.7 67 67 E 8 13 29.89 1012 10 16 N/A
12:55 am 00:55 Clear 58 14.4 47 8.5 68 68 E 6 9 29.88 1012 10 16 N/A
1:15 am 01:15 Clear 58 14.2 47 8.2 67 67 E 5 7 29.90 1012 10 16 N/A
1:35 am 01:35 Clear 56 13.2 49 9.2 77 77 E 5 7 29.90 1013 10 16 N/A
1:55 am 01:55 Clear 55 12.8 49 9.5 81 81 N N/A 29.90 1012 10 16 N/A
2:15 am 02:15 Clear 54 12 49 9.6 85 85 NE 3 6 29.90 1012 10 16 N/A
2:35 am 02:35 Clear 54 12.1 49 9.7 85 85 NE 6 9 29.89 1012 10 16 N/A
2:55 am 02:55 Clear 55 13 49 9.7 81 81 ENE 8 13 29.89 1012 10 16 N/A
3:15 am 03:15 Clear 56 13.2 49 9.4 78 78 ENE 7 11 29.88 1012 10 16 N/A
3:35 am 03:35 Clear 55 13 49 9.3 78 78 ENE 5 7 29.88 1012 10 16 N/A
3:55 am 03:55 Clear 55 12.9 49 9.2 78 78 E 5 7 29.88 1012 10 16 N/A
4:15 am 04:15 Clear 56 13.2 49 9.2 77 77 N N/A 29.89 1012 10 16 N/A
4:35 am 04:35 Clear 56 13.1 49 9.5 79 79 SE 3 6 29.89 1012 10 16 N/A
4:55 am 04:55 Clear 54 12 49 9.2 83 83 N N/A 29.88 1012 10 16 N/A
5:15 am 05:15 Clear 54 12 49 9.5 85 85 N N/A 29.89 1012 10 16 N/A
5:35 am 05:35 Clear 52 11.2 49 9.3 88 88 NE 3 6 29.88 1012 10 16 N/A
5:55 am 05:55 Clear 52 11 49 9.5 91 91 NE 5 7 29.88 1012 10 16 N/A
6:15 am 06:15 Clear 52 11.3 50 9.8 91 91 N N/A 29.89 1012 10 16 N/A
6:35 am 06:35 Clear 52 11.1 49 9.6 91 91 N N/A 29.89 1012 10 16 N/A
6:55 am 06:55 Clear 52 11.2 49 9.7 91 91 N N/A 29.90 1013 10 16 N/A
7:15 am 07:15 Sunny 51 10.7 49 9.5 92 92 NNE 3 6 29.90 1012 10 16 N/A
7:35 am 07:35 Sunny 52 11.1 50 10 93 93 NE 5 7 29.88 1012 10 16 N/A
7:55 am 07:55 Sunny 54 12.4 50 10.2 87 87 E 5 7 29.87 1012 10 16 N/A
8:15 am 08:15 Sunny 57 13.7 49 9.7 77 77 ENE 3 6 29.85 1011 10 16 N/A
8:35 am 08:35 Sunny 59 15.1 49 9.3 69 69 E 3 6 29.86 1011 10 16 N/A
8:55 am 08:55 Sunny 61 16.2 49 9.7 66 66 E 5 7 29.84 1010 10 16 N/A
9:15 am 09:15 Sunny 63 17.3 49 9.2 59 59 E 7 11 29.82 1010 10 16 N/A
9:35 am 09:35 Sunny 64 17.9 50 10.2 61 61 NE 3 6 29.83 1010 10 16 N/A
9:55 am 09:55 Mostly Cloudy 65 18.6 50 10.2 58 58 NE 3 6 29.82 1010 10 16 N/A
10:15 am 10:15 Partly Cloudy 67 19.5 49 9.5 53 53 N N/A 29.80 1009 10 16 N/A
10:35 am 10:35 Sunny 68 20 50 9.9 52 52 N N/A 29.82 1010 10 16 N/A
10:55 am 10:55 Sunny 70 21.1 52 10.9 52 52 S 3 6 29.81 1009 10 16 N/A
11:15 am 11:15 Sunny 71 21.8 53 11.6 52 52 SW 5 7 29.80 1009 10 16 N/A
11:35 am 11:35 Sunny 72 22.4 53 11.4 50 50 N N/A 29.80 1009 10 16 N/A
11:55 am 11:55 Sunny 73 22.8 53 11.6 49 49 SSW 5 7 29.78 1009 10 16 N/A
12:15 pm 12:15 Sunny 73 23 53 11.9 50 50 W 5 7 29.78 1009 10 16 N/A
12:35 pm 12:35 Sunny 75 23.7 53 11.9 48 48 N N/A 29.77 1008 10 16 N/A
12:55 pm 12:55 Sunny 76 24.2 54 12.4 48 48 N N/A 29.75 1008 10 16 N/A
1:15 pm 13:15 Sunny 76 24.4 55 12.7 48 48 S 5 7 29.75 1008 10 16 N/A
1:35 pm 13:35 Sunny 77 25.2 55 12.9 46 46 W 8 13 29.74 1007 10 16 N/A
1:55 pm 13:55 Sunny 78 25.5 56 13.2 47 47 WNW 6 9 29.73 1007 10 16 N/A
2:15 pm 14:15 Partly Cloudy 78 25.4 56 13.6 48 48 NW 10 17 29.73 1007 10 16 N/A
2:35 pm 14:35 Partly Cloudy 78 25.7 56 13.6 47 47 WNW 5 7 29.73 1007 10 16 N/A
2:55 pm 14:55 Sunny 78 25.4 57 13.9 49 49 NNW 3 6 29.72 1007 10 16 N/A
3:15 pm 15:15 Sunny 78 25.7 57 13.8 48 48 NNW 3 6 29.71 1006 10 16 N/A
3:35 pm 15:35 Partly Cloudy 80 26.5 56 13.5 45 45 SW 6 9 29.71 1006 10 16 N/A
3:55 pm 15:55 Sunny 79 26.3 56 13.5 45 45 N N/A 29.72 1006 10 16 N/A
4:15 pm 16:15 Sunny 81 27.1 56 13.4 43 43 S 5 7 29.70 1006 10 16 N/A
4:35 pm 16:35 Sunny 81 27.2 56 13.1 42 42 WSW 5 7 29.68 1005 10 16 N/A
4:55 pm 16:55 Sunny 81 27.4 56 13.1 41 41 W 7 11 29.68 1005 10 16 N/A
5:15 pm 17:15 Sunny 82 27.8 56 13.2 41 41 SW 9 15 29.68 1005 10 16 N/A
5:35 pm 17:35 Sunny 82 27.9 56 13.5 41 41 W 8 13 29.68 1005 10 16 N/A
5:55 pm 17:55 Sunny 82 27.7 56 13.3 41 41 W 7 11 29.68 1005 10 16 N/A
6:15 pm 18:15 Sunny 82 27.6 56 13.5 42 42 WSW 6 9 29.67 1005 10 16 N/A
6:35 pm 18:35 Sunny 82 27.5 56 13.3 42 42 WSW 7 11 29.67 1005 10 16 N/A
6:55 pm 18:55 Sunny 81 27.1 55 13 42 42 WSW 7 11 29.67 1005 10 16 N/A
7:15 pm 19:15 Sunny 80 26.5 57 13.7 45 45 WSW 5 7 29.68 1005 10 16 N/A
7:35 pm 19:35 Sunny 79 26 57 14 48 48 SW 3 6 29.68 1005 10 16 N/A
7:55 pm 19:55 Sunny 78 25.3 58 14.6 52 52 SSW 3 6 29.70 1006 10 16 N/A
8:15 pm 20:15 Clear 77 24.8 58 14.5 53 53 SSW 5 7 29.70 1006 10 16 N/A
8:35 pm 20:35 Clear 72 22.1 60 15.4 66 66 N N/A 29.73 1007 10 16 N/A
8:55 pm 20:55 Clear 71 21.5 58 14.7 65 65 N N/A 29.75 1007 10 16 N/A
9:15 pm 21:15 Clear 69 20.5 58 14.5 69 69 N N/A 29.75 1008 10 16 N/A
9:35 pm 21:35 Clear 67 19.5 58 14.3 72 72 N N/A 29.77 1008 10 16 N/A
9:55 pm 21:55 Clear 68 20 59 15 73 73 SSW 3 6 29.78 1008 10 16 N/A
10:15 pm 22:15 Clear 67 19.5 58 14.6 73 73 SSW 6 9 29.80 1009 10 16 N/A
10:35 pm 22:35 Clear 69 20.3 58 14.5 69 69 SW 7 11 29.82 1010 10 16 N/A
10:55 pm 22:55 Clear 68 20 57 14.1 69 69 SW 5 7 29.80 1009 10 16 N/A
11:15 pm 23:15 Clear 67 19.3 57 14.1 72 72 SW 5 7 29.81 1010 10 16 N/A
11:35 pm 23:35 Clear 67 19.6 57 14.1 71 71 SW 3 6 29.81 1010 10 16 N/A
11:55 pm 23:55 Clear 65 18.5 57 14 75 75 W 3 6 29.82 1010 10 16 N/A

Powered by AerisWeather